GW1597 Weather Reports


time (UTC)temp
C
wind
direction
speed
KPH
gust
KPH
rain 1hr
cm
rain 24hr
cm
rain mn
cm
humidity
%
barometer
mb
20260906102441 21 318 0.0 0.0 0.00 0.00 0.00 96 986.7
20260906102010 21 317 0.0 0.0 0.00 0.00 0.00 96 986.4
20260906101125 20 317 0.0 0.0 0.00 0.00 0.00 96 986.4
20260906100223 21 318 0.0 0.0 0.00 0.00 0.00 96 986.4
20260906095751 20 318 0.0 0.0 0.00 0.00 0.00 96 986.4
20260906095321 20 318 0.0 0.0 0.00 0.00 0.00 96 986.4
20260906094902 20 318 0.0 0.0 0.00 0.00 0.00 96 986.4
20260906093946 20 317 0.0 0.0 0.00 0.00 0.00 96 986.4
20260906093529 20 318 0.0 0.0 0.00 0.00 0.00 96 986.4
20260906093114 20 318 0.0 0.0 0.00 0.00 0.00 95 986.4
20260906092656 20 318 0.0 0.0 0.00 0.00 0.00 95 986.4
20260906091340 21 318 0.0 0.0 0.00 0.00 0.00 95 986.1
20260906090908 21 318 0.0 0.0 0.00 0.00 0.00 95 986.1
20260906090002 21 318 0.0 1.6 0.00 0.00 0.00 95 985.7
20260906085530 21 21 0.0 0.0 0.00 0.00 0.00 95 985.7
20260906085113 21 23 0.0 0.0 0.00 0.00 0.00 95 985.7
20260906084642 21 23 0.0 0.0 0.00 0.00 0.00 95 985.7
20260906084212 21 348 0.0 1.6 0.00 0.00 0.00 95 985.7
20260906083739 21 315 0.0 3.2 0.00 0.00 0.00 95 985.7
20260906083323 21 313 1.6 3.2 0.00 0.00 0.00 95 985.7
20260906082904 21 319 0.0 0.0 0.00 0.00 0.00 95 986.1
20260906082433 21 319 0.0 0.0 0.00 0.00 0.00 95 986.1
20260906082002 21 319 0.0 0.0 0.00 0.00 0.00 95 986.1
20260906081515 21 319 0.0 0.0 0.00 0.00 0.00 95 986.1
20260906081044 21 319 0.0 0.0 0.00 0.00 0.00 95 986.4
20260906080614 21 319 0.0 0.0 0.00 0.00 0.00 96 986.4
20260906080144 21 319 0.0 0.0 0.00 0.00 0.00 96 986.4
20260906075726 21 319 0.0 0.0 0.00 0.00 0.00 96 986.4
20260906074837 21 319 0.0 0.0 0.00 0.00 0.00 95 986.4
20260906074422 21 319 0.0 0.0 0.00 0.00 0.00 95 986.4
20260906074004 21 319 0.0 0.0 0.00 0.00 0.00 95 986.4
20260906073533 21 319 0.0 0.0 0.00 0.00 0.00 95 986.4
20260906073116 21 319 0.0 0.0 0.00 0.00 0.00 96 986.4
20260906072227 21 319 0.0 0.0 0.00 0.00 0.00 96 986.4
20260906071756 21 319 0.0 0.0 0.00 0.00 0.00 96 986.4
20260906071340 21 319 0.0 0.0 0.00 0.00 0.00 96 986.4
20260906070422 21 319 0.0 0.0 0.00 0.00 0.00 96 986.1
20260906065518 21 319 0.0 0.0 0.00 0.00 0.00 96 986.4
20260906064630 21 319 0.0 0.0 0.00 0.00 0.00 96 986.4
20260906063725 21 319 0.0 0.0 0.00 0.00 0.00 96 986.4
20260906063307 21 319 0.0 0.0 0.00 0.00 0.00 96 986.4
20260906062851 21 319 0.0 0.0 0.00 0.00 0.00 96 986.4
20260906062436 21 319 0.0 0.0 0.00 0.00 0.00 96 986.4
20260906062002 21 319 0.0 0.0 0.00 0.00 0.00 96 986.4
20260906061531 21 319 0.0 0.0 0.00 0.00 0.00 96 986.4
20260906061114 21 319 0.0 0.0 0.00 0.00 0.00 96 986.4
20260906060657 21 319 0.0 0.0 0.00 0.00 0.00 96 986.7
20260906060242 21 319 0.0 0.0 0.00 0.00 0.00 96 986.7
20260906055825 21 319 0.0 0.0 0.00 0.00 0.00 96 986.7
20260906055410 21 319 0.0 0.0 0.00 0.00 0.00 96 986.7
20260906054954 21 319 0.0 0.0 0.00 0.00 0.00 96 986.7
20260906054053 21 319 0.0 0.0 0.00 0.00 0.00 96 986.7
20260906053639 21 319 0.0 0.0 0.00 0.00 0.00 96 986.7
20260906053208 21 319 0.0 0.0 0.00 0.00 0.00 96 986.4
20260906052737 21 319 0.0 0.0 0.00 0.00 0.00 96 986.7
20260906052306 21 319 0.0 0.0 0.00 0.00 0.00 96 986.7
20260906051834 21 319 0.0 0.0 0.00 0.00 0.00 96 986.7
20260906050918 21 319 0.0 0.0 0.00 0.00 0.00 96 986.4
20260906050503 21 319 0.0 0.0 0.00 0.00 0.00 96 986.4
20260906050033 21 319 0.0 0.0 0.00 0.00 0.00 95 986.4
20260906045616 21 319 0.0 0.0 0.00 0.00 0.00 95 986.7
20260906045159 21 319 0.0 0.0 0.00 0.00 0.00 95 986.7
20260906044743 21 319 0.0 0.0 0.00 0.00 0.00 95 986.4
20260906044312 21 319 0.0 0.0 0.00 0.00 0.00 95 986.7
20260906043840 21 319 0.0 0.0 0.00 0.00 0.00 95 986.7
20260906043410 21 319 0.0 0.0 0.00 0.00 0.00 95 986.4
20260906042509 21 319 0.0 0.0 0.00 0.00 0.00 95 986.4
20260906042054 21 319 0.0 0.0 0.00 0.00 0.00 95 986.4
20260906041622 21 319 0.0 0.0 0.00 0.00 0.00 95 986.4
20260906041136 21 319 0.0 0.0 0.00 0.00 0.00 95 986.4
20260906040719 21 319 0.0 0.0 0.00 0.00 0.00 95 986.4
20260906040302 21 319 0.0 0.0 0.00 0.00 0.00 95 986.4
20260906035832 21 319 0.0 0.0 0.00 0.00 0.00 95 986.1
20260906035415 21 319 0.0 0.0 0.00 0.00 0.00 95 986.1
20260906034958 21 319 0.0 0.0 0.00 0.00 0.00 95 986.4
20260906034545 21 319 0.0 0.0 0.00 0.00 0.00 95 986.4
20260906033610 21 319 0.0 0.0 0.00 0.00 0.00 95 986.4
20260906033156 21 319 0.0 0.0 0.00 0.00 0.00 95 986.4
20260906032721 21 319 0.0 0.0 0.00 0.00 0.00 95 986.4
20260906032250 21 319 0.0 0.0 0.00 0.00 0.00 95 986.4
20260906031348 21 319 0.0 0.0 0.00 0.00 0.00 95 986.7
20260906030444 21 319 0.0 0.0 0.00 0.00 0.00 95 987.1
20260906030027 21 319 0.0 0.0 0.00 0.00 0.00 95 986.7
20260906025556 22 319 0.0 0.0 0.00 0.00 0.00 95 987.1
20260906025123 22 319 0.0 0.0 0.00 0.00 0.00 95 987.1
20260906024650 22 319 0.0 0.0 0.00 0.00 0.00 95 987.1
20260906024219 22 319 1.6 1.6 0.00 0.00 0.00 95 987.1
20260906023746 22 319 0.0 0.0 0.00 0.00 0.00 95 987.1
20260906022844 22 319 0.0 0.0 0.00 0.00 0.00 95 986.7
20260906022412 22 319 0.0 0.0 0.00 0.00 0.00 95 987.1
20260906021956 22 319 0.0 0.0 0.00 0.00 0.00 95 987.1
20260906021526 22 319 0.0 0.0 0.00 0.00 0.00 95 987.1
20260906021109 22 319 0.0 0.0 0.00 0.00 0.00 94 987.1
20260906020621 22 319 0.0 0.0 0.00 0.00 0.00 94 986.7
20260906020150 22 319 0.0 0.0 0.00 0.00 0.00 94 986.7
20260906015301 22 319 0.0 0.0 0.00 0.00 0.00 94 986.7
20260906014829 22 319 0.0 0.0 0.00 0.00 0.00 94 986.7
20260906013941 22 319 0.0 0.0 0.00 0.00 0.00 94 986.7
20260906013524 22 319 0.0 0.0 0.00 0.00 0.00 94 986.4
20260906013051 22 319 0.0 0.0 0.00 0.00 0.00 94 986.4
20260906011731 22 319 0.0 1.6 0.00 0.00 0.00 94 986.4
20260906011245 23 319 0.0 1.6 0.00 0.00 0.00 94 986.4
20260906010341 23 319 0.0 0.0 0.00 0.00 0.00 93 986.1
20260906005924 23 319 0.0 0.0 0.00 0.00 0.00 93 986.1
20260906005508 23 319 0.0 0.0 0.00 0.00 0.00 93 986.1
20260906005036 23 319 0.0 0.0 0.00 0.00 0.00 93 986.1
20260906004132 23 319 0.0 0.0 0.00 0.00 0.00 93 986.1
20260906003714 23 319 0.0 0.0 0.00 0.00 0.00 92 986.1
20260906003258 24 319 0.0 0.0 0.00 0.00 0.00 92 986.1
20260906002811 24 319 0.0 0.0 0.00 0.00 0.00 92 986.1
20260906002354 24 319 0.0 0.0 0.00 0.00 0.00 92 986.1
20260906001937 24 319 0.0 0.0 0.00 0.00 0.00 91 985.7
20260906001521 24 319 0.0 0.0 0.00 0.00 0.00 91 985.7
20260906001049 25 319 0.0 0.0 0.00 0.00 0.00 91 985.7
20260906000204 25 319 0.0 0.0 0.00 0.00 0.00 90 985.7
20260905235744 25 319 0.0 0.0 0.00 0.00 0.00 90 986.1
20260905235310 25 319 0.0 0.0 0.00 0.00 0.00 90 985.7
20260905234839 25 319 0.0 0.0 0.00 0.00 0.00 89 985.7
20260905234423 25 319 0.0 1.6 0.00 0.00 0.00 89 985.7
20260905234008 25 319 0.0 0.0 0.00 0.00 0.00 88 986.1
20260905233553 26 319 0.0 1.6 0.00 0.00 0.00 88 986.1
20260905232654 26 319 0.0 0.0 0.00 0.00 0.00 87 985.7
20260905232226 26 319 0.0 0.0 0.00 0.00 0.00 87 985.7
20260905231756 26 319 0.0 0.0 0.00 0.00 0.00 86 985.7
20260905230911 26 319 0.0 0.0 0.00 0.00 0.00 85 985.7
20260905230441 27 319 0.0 0.0 0.00 0.00 0.00 83 985.7
20260905230010 27 319 1.6 3.2 0.00 0.00 0.00 82 985.7
20260905225055 27 105 0.0 0.0 0.00 0.00 0.00 83 985.4
20260905224638 27 105 0.0 1.6 0.00 0.00 0.00 81 985.7
20260905224220 28 102 0.0 0.0 0.00 0.00 0.00 79 985.4
20260905223802 28 102 0.0 0.0 0.00 0.00 0.00 78 985.4
20260905223333 29 102 0.0 0.0 0.00 0.00 0.00 75 985.7
20260905222917 30 103 0.0 0.0 0.00 0.00 0.00 74 985.7
20260905222503 30 102 0.0 0.0 0.00 0.00 0.00 73 985.7
20260905222048 30 102 0.0 0.0 0.00 0.00 0.00 72 985.4
20260905221632 30 103 0.0 4.8 0.00 0.00 0.00 71 985.4
20260905220730 31 333 3.2 3.2 0.00 0.00 0.00 67 985.4
20260905215838 31 341 4.8 4.8 0.00 0.00 0.00 65 985.4
20260905214951 31 302 3.2 4.8 0.00 0.00 0.00 65 985.4
20260905214521 31 6 3.2 4.8 0.00 0.00 0.00 63 985.4
20260905214105 31 12 1.6 6.4 0.00 0.00 0.00 64 985.4
20260905213636 31 74 3.2 6.4 0.00 0.00 0.00 63 985.4
20260905212252 31 87 3.2 9.7 0.00 0.00 0.00 63 985.1
20260905211407 31 38 4.8 8.0 0.00 0.00 0.00 64 985.1
20260905210950 31 332 4.8 6.4 0.00 0.00 0.00 63 985.1
20260905210536 31 352 4.8 11.3 0.00 0.00 0.00 63 985.1
20260905210105 31 106 8.0 16.1 0.00 0.00 0.00 61 985.1
20260905205617 31 329 4.8 11.3 0.00 0.00 0.00 64 985.1
20260905204719 31 94 6.4 8.0 0.00 0.00 0.00 62 985.1
20260905204301 32 107 9.7 14.5 0.00 0.00 0.00 61 985.1
20260905203845 32 85 3.2 6.4 0.00 0.00 0.00 64 985.1
20260905203430 32 64 3.2 8.0 0.00 0.00 0.00 62 985.1
20260905203016 32 84 6.4 11.3 0.00 0.00 0.00 60 985.1
20260905202601 32 346 1.6 9.7 0.00 0.00 0.00 64 985.4
20260905202147 31 58 6.4 8.0 0.00 0.00 0.00 64 985.1
20260905201732 32 76 4.8 9.7 0.00 0.00 0.00 61 985.1
20260905201316 32 321 4.8 6.4 0.00 0.00 0.00 64 985.1
20260905200846 31 312 3.2 8.0 0.00 0.00 0.00 62 985.1
20260905200401 31 332 1.6 3.2 0.00 0.00 0.00 63 985.1
20260905195946 31 112 3.2 8.0 0.00 0.00 0.00 62 985.1
20260905195516 31 110 6.4 9.7 0.00 0.00 0.00 61 985.4
20260905195100 31 78 9.7 12.9 0.00 0.00 0.00 59 985.4
20260905194155 31 116 4.8 8.0 0.00 0.00 0.00 61 985.4
20260905193708 31 125 9.7 11.3 0.00 0.00 0.00 60 985.4
20260905193252 31 93 9.7 12.9 0.00 0.00 0.00 62 985.4
20260905191933 31 44 3.2 9.7 0.00 0.00 0.00 61 985.7
20260905191049 31 121 4.8 9.7 0.00 0.00 0.00 62 985.7
20260905190617 31 103 6.4 11.3 0.00 0.00 0.00 59 986.1
20260905185730 31 60 4.8 9.7 0.00 0.00 0.00 63 986.4
20260905185314 31 89 9.7 12.9 0.00 0.00 0.00 65 986.4
20260905184843 31 72 8.0 8.0 0.00 0.00 0.00 70 986.4
20260905184429 31 45 0.0 6.4 0.00 0.00 0.00 70 986.7
20260905183958 30 122 3.2 4.8 0.00 0.00 0.00 70 986.7
20260905183527 30 79 6.4 8.0 0.00 0.00 0.00 72 986.7
20260905183110 30 49 6.4 11.3 0.00 0.00 0.00 69 986.7
20260905182652 30 75 8.0 8.0 0.00 0.00 0.00 72 987.1
20260905182223 30 330 4.8 4.8 0.00 0.00 0.00 70 987.1
20260905181805 31 101 0.0 3.2 0.00 0.00 0.00 69 987.1
20260905180914 30 124 0.0 8.0 0.00 0.00 0.00 72 987.1
20260905180013 30 316 3.2 3.2 0.00 0.00 0.00 73 987.1
20260905175557 29 310 1.6 4.8 0.00 0.00 0.00 76 987.1
20260905175143 28 15 4.8 4.8 0.00 0.00 0.00 74 987.1
20260905174726 29 330 3.2 6.4 0.00 0.00 0.00 76 987.1
20260905174257 29 313 0.0 0.0 0.00 0.00 0.00 75 987.1
20260905173842 28 198 0.0 1.6 0.00 0.00 0.00 75 987.1
20260905172955 28 198 0.0 3.2 0.00 0.00 0.00 77 987.1
20260905172539 27 65 1.6 3.2 0.00 0.00 0.00 79 987.1
20260905172109 27 71 3.2 4.8 0.00 0.00 0.00 79 987.1
20260905171651 28 103 3.2 4.8 0.00 0.00 0.00 78 987.1
20260905171238 28 207 0.0 3.2 0.00 0.00 0.00 77 987.1
20260905170805 27 116 0.0 3.2 0.00 0.00 0.00 78 987.1
20260905170335 27 340 0.0 1.6 0.00 0.00 0.00 79 987.1
20260905165918 27 123 1.6 3.2 0.00 0.00 0.00 78 987.1
20260905165501 27 339 0.0 1.6 0.00 0.00 0.00 78 987.1
20260905165045 27 309 0.0 4.8 0.00 0.00 0.00 78 987.4
20260905164629 27 34 3.2 4.8 0.00 0.00 0.00 80 987.4
20260905164214 27 327 1.6 3.2 0.00 0.00 0.00 82 987.4
20260905163742 27 329 0.0 1.6 0.00 0.00 0.00 82 987.1
20260905163312 27 263 1.6 4.8 0.00 0.00 0.00 81 987.4
20260905162840 27 330 1.6 4.8 0.00 0.00 0.00 82 987.4
20260905161951 27 304 0.0 4.8 0.00 0.00 0.00 81 987.4
20260905161536 26 221 0.0 0.0 0.00 0.00 0.00 82 987.4
20260905160649 26 352 3.2 4.8 0.00 0.00 0.00 84 987.8
20260905155332 26 319 0.0 0.0 0.00 0.00 0.00 88 988.1
20260905154847 26 319 0.0 0.0 0.00 0.00 0.00 88 988.4
20260905154417 25 319 0.0 0.0 0.00 0.00 0.00 89 988.4
20260905153527 25 319 0.0 0.0 0.00 0.00 0.00 89 988.8
20260905153111 25 310 0.0 3.2 0.00 0.00 0.00 87 988.4
20260905152653 25 237 0.0 9.7 0.00 0.00 0.00 87 988.8
20260905152236 25 316 1.6 1.6 0.00 0.00 0.00 90 989.1
20260905151347 25 317 0.0 6.4 0.00 0.00 0.00 91 989.8
20260905150931 24 318 0.0 4.8 0.00 0.00 0.00 90 989.5
20260905150513 24 326 6.4 8.0 0.00 0.00 0.00 91 989.8
20260905150058 24 138 0.0 12.9 0.00 0.00 0.00 92 989.5
20260905145641 25 117 4.8 4.8 0.00 0.00 0.00 92 988.8
20260905145225 25 139 0.0 0.0 0.00 0.00 0.00 93 988.8
20260905144808 25 139 0.0 0.0 0.00 0.00 0.00 92 988.8
20260905144352 25 139 0.0 0.0 0.00 0.00 0.00 92 988.8
20260905143935 25 139 0.0 0.0 0.00 0.00 0.00 91 989.1
20260905143504 25 139 0.0 0.0 0.00 0.00 0.00 91 988.8
20260905143032 25 155 0.0 0.0 0.00 0.00 0.00 90 989.1
20260905142615 25 82 0.0 0.0 0.00 0.00 0.00 92 989.5
20260905142159 25 82 0.0 4.8 0.00 0.00 0.00 91 989.1
20260905141741 25 107 1.6 4.8 0.00 0.00 0.00 92 989.1
20260905141325 25 310 1.6 3.2 0.00 0.00 0.00 92 989.1
20260905140838 25 310 0.0 0.0 0.00 0.00 0.00 94 989.1
20260905140422 25 310 0.0 0.0 0.00 0.00 0.00 94 989.1
20260905140005 24 310 0.0 0.0 0.00 0.00 0.00 94 989.1
20260905135547 24 310 0.0 0.0 0.00 0.00 0.00 93 989.5
20260905135130 24 310 0.0 0.0 0.00 0.00 0.00 93 989.5
20260905134658 23 310 0.0 0.0 0.00 0.00 0.00 93 989.5
20260905134242 23 310 0.0 1.6 0.00 0.00 0.00 93 989.1
20260905132919 23 103 6.4 6.4 0.00 0.00 0.00 94 989.5
20260905132448 23 349 6.4 9.7 0.00 0.00 0.00 94 989.5
20260905132017 23 217 4.8 8.0 0.00 0.00 0.00 94 989.5
20260905131546 23 334 0.0 0.0 0.00 0.00 0.00 94 988.1
20260905131129 23 334 0.0 0.0 0.00 0.00 0.00 94 988.1
20260905130713 23 334 0.0 4.8 0.00 0.00 0.00 94 988.1
20260905125822 22 27 3.2 3.2 0.00 0.00 0.00 94 988.1
20260905125404 22 330 0.0 4.8 0.00 0.00 0.00 94 988.1
20260905124933 22 307 0.0 0.0 0.00 0.00 0.00 95 988.1
20260905124502 22 324 1.6 4.8 0.00 0.00 0.00 95 988.4
20260905124046 22 333 3.2 4.8 0.00 0.00 0.00 95 988.4
20260905123616 -17 0.0 0.0 0.00 0.00 0.00 988.1
20260905123200 -17 0.0 0.0 0.00 0.00 0.00 988.4
20260905122743 -17 0.0 0.0 0.00 0.00 0.00 988.1
20260905121838 -17 0.0 0.0 0.00 0.00 0.00 988.4
20260905120507 -17 0.0 0.0 0.00 0.00 0.00 988.1
20260905120050 -17 0.0 0.0 0.00 0.00 0.00 988.1
20260905115604 -17 0.0 0.0 0.00 0.00 0.00 987.8
20260905115132 -17 0.0 0.0 0.00 0.00 0.00 987.8
20260905114715 -17 0.0 0.0 0.00 0.00 0.00 987.8
20260905114245 -17 0.0 0.0 0.00 0.00 0.00 987.8
20260905113830 -17 0.0 0.0 0.00 0.00 0.00 987.8
20260905112459 -17 0.0 0.0 0.00 0.00 0.00 987.8
20260905111614 -17 0.0 0.0 0.00 0.00 0.00 987.8
20260905111157 -17 0.0 0.0 0.00 0.00 0.00 987.8
20260905110312 -17 0.0 0.0 0.00 0.00 0.00 987.8
20260905105857 -17 0.0 0.0 0.00 0.00 0.00 988.1
20260905104939 -17 0.0 0.0 0.00 0.00 0.00 987.8
20260905104523 -17 0.0 0.0 0.00 0.00 0.00 987.4
20260905104107 -17 0.0 0.0 0.00 0.00 0.00 987.4
20260905103651 -17 0.0 0.0 0.00 0.00 0.00 987.8
20260905103220 -17 0.0 0.0 0.00 0.00 0.00 987.4